Weather in Klichka

Russia / Zabaykalsky Krai     50°26′31″N   117°59′53″E
В апреле 2022 года жителям России запретили посещать сайт meteo.paraplan.net по решению Генеральной прокуратуры. Аудитория сайта уменьшилась в 10 раз. Владельцы сайта не видят смысла в поддержке погодного сервера в таких условиях. Сайт будет закрыт в октябре.
temp.,
°C
wind,
m/s
gust,
m/s
humid.,
%
clouds,
%
prec.,
mm/h
press.,
hPa
HPBL,
m
3 october, mon
mon300:00−3w23481 0.0 102739
03:00−5w23573 0.0 102835
06:00−6w23675 0.0 102950
09:00−3wnw355485 0.0 1029344
12:00+2nw6727100 0.0 10282605
15:00+1nnw7923100 0.0 10282650
18:00+1nw692397 0.0 10281357
21:00−4wnw22360 0.0 103116
4 october, tue
tue400:00−6w22410 0.0 103211
03:00−7w22421 0.0 103210
06:00−7w22430 0.0 103210
09:00−3wnw22310 0.0 1031164
12:00+3nnw56200 0.0 10281856
15:00+5nw56175 0.0 10262456
18:00+2nnw462445 0.0 1026151
21:00−2nw2236100 0.0 102813
5 october, wed
wed500:00−3wnw2238100 0.0 102811
03:00−3w114038 0.0 102810
06:00−5w11475 0.0 102810
09:00−2w22375 0.0 1028163
12:00+4wnw45255 0.0 10251975
15:00+5wnw5622100 0.0 10232547
18:00+3wnw582913 0.0 1023354
21:00−2wnw22455 0.0 102510
6 october, thu
thu600:00−4wsw115212 0.0 102510
03:00−4wsw22585 0.0 102510
06:00−5wsw12635 0.0 102510
09:00−2wsw22490 0.0 1024147
12:00+4w34331 0.0 10211332
15:00+6w332713 0.0 10192008
18:00+4w33335 0.0 101955
21:00−1w11464 0.0 102110
7 october, fri
fri700:00−2nw11530 0.0 102210
03:00−4nw11590 0.0 102210
06:00−4wnw11631 0.0 102310
09:00−1w11495 0.0 1023110
12:00+4wsw123325 0.0 1021949
15:00+7wsw222654 0.0 10201724
18:00+4ese013265 0.0 102010
21:00+1e113838 0.0 102210